Year,Month,Day,Hour,Minute,Value (Times are PST for temperature in C)
2018,06,09,00,00,10.70
2018,06,09,00,01,10.60
2018,06,09,00,02,10.60
2018,06,09,00,03,10.60
2018,06,09,00,04,10.60
2018,06,09,00,05,10.60
2018,06,09,00,06,10.60
2018,06,09,00,07,10.60
2018,06,09,00,08,10.60
2018,06,09,00,09,10.60
2018,06,09,00,10,10.60
2018,06,09,00,11,10.60
2018,06,09,00,12,10.60
2018,06,09,00,13,10.60
2018,06,09,00,14,10.60
2018,06,09,00,15,10.60
2018,06,09,00,16,10.60
2018,06,09,00,17,10.60
2018,06,09,00,18,10.60
2018,06,09,00,19,10.60
2018,06,09,00,20,10.60
2018,06,09,00,21,10.60
2018,06,09,00,22,10.50
2018,06,09,00,23,10.50
2018,06,09,00,24,10.50
2018,06,09,00,25,10.50
2018,06,09,00,26,10.50
2018,06,09,00,27,10.50
2018,06,09,00,28,10.40
2018,06,09,00,29,10.40
2018,06,09,00,30,10.40
2018,06,09,00,31,10.40
2018,06,09,00,32,10.40
2018,06,09,00,33,10.40
2018,06,09,00,34,10.30
2018,06,09,00,35,10.30
2018,06,09,00,36,10.30
2018,06,09,00,37,10.30
2018,06,09,00,38,10.30
2018,06,09,00,39,10.30
2018,06,09,00,40,10.30
2018,06,09,00,41,10.30
2018,06,09,00,42,10.30
2018,06,09,00,43,10.30
2018,06,09,00,44,10.20
2018,06,09,00,45,10.20
2018,06,09,00,46,10.20
2018,06,09,00,47,10.20
2018,06,09,00,48,10.20
2018,06,09,00,49,10.20
2018,06,09,00,50,10.20
2018,06,09,00,51,10.20
2018,06,09,00,52,10.20
2018,06,09,00,53,10.20
2018,06,09,00,54,10.20
2018,06,09,00,55,10.10
2018,06,09,00,56,10.10
2018,06,09,00,57,10.10
2018,06,09,00,58,10.10
2018,06,09,00,59,10.10
2018,06,09,01,00,10.10
2018,06,09,01,01,10.10
2018,06,09,01,02,10.10
2018,06,09,01,03,10.10
2018,06,09,01,04,10.10
2018,06,09,01,05,10.00
2018,06,09,01,06,10.00
2018,06,09,01,07,10.00
2018,06,09,01,08,10.00
2018,06,09,01,09,10.00
2018,06,09,01,10,10.00
2018,06,09,01,11,10.00
2018,06,09,01,12,10.00
2018,06,09,01,13,10.00
2018,06,09,01,14,10.00
2018,06,09,01,15,10.00
2018,06,09,01,16,9.90
2018,06,09,01,17,9.90
2018,06,09,01,18,9.90
2018,06,09,01,19,9.90
2018,06,09,01,20,9.90
2018,06,09,01,21,9.90
2018,06,09,01,22,9.80
2018,06,09,01,23,9.80
2018,06,09,01,24,9.80
2018,06,09,01,25,9.80
2018,06,09,01,26,9.80
2018,06,09,01,27,9.80
2018,06,09,01,28,9.80
2018,06,09,01,29,9.80
2018,06,09,01,30,9.80
2018,06,09,01,31,9.80
2018,06,09,01,32,9.80
2018,06,09,01,33,9.80
2018,06,09,01,34,9.80
2018,06,09,01,35,9.80
2018,06,09,01,36,9.80
2018,06,09,01,37,9.80
2018,06,09,01,38,9.80
2018,06,09,01,39,9.80
2018,06,09,01,40,9.80
2018,06,09,01,41,9.80
2018,06,09,01,42,9.80
2018,06,09,01,43,9.80
2018,06,09,01,44,9.70
2018,06,09,01,45,9.70
2018,06,09,01,46,9.70
2018,06,09,01,47,9.70
2018,06,09,01,48,9.70
2018,06,09,01,49,9.70
2018,06,09,01,50,9.70
2018,06,09,01,51,9.70
2018,06,09,01,52,9.70
2018,06,09,01,53,9.70
2018,06,09,01,54,9.70
2018,06,09,01,55,9.70
2018,06,09,01,56,9.70
2018,06,09,01,57,9.70
2018,06,09,01,58,9.60
2018,06,09,01,59,9.60
2018,06,09,02,00,9.60
2018,06,09,02,01,9.60
2018,06,09,02,02,9.60
2018,06,09,02,03,9.60
2018,06,09,02,04,9.50
2018,06,09,02,05,9.50
2018,06,09,02,06,9.50
2018,06,09,02,07,9.50
2018,06,09,02,08,9.50
2018,06,09,02,09,9.50
2018,06,09,02,10,9.50
2018,06,09,02,11,9.50
2018,06,09,02,12,9.50
2018,06,09,02,13,9.50
2018,06,09,02,14,9.50
2018,06,09,02,15,9.40
2018,06,09,02,16,9.40
2018,06,09,02,17,9.40
2018,06,09,02,18,9.40
2018,06,09,02,19,9.40
2018,06,09,02,20,9.50
2018,06,09,02,21,9.40
2018,06,09,02,22,9.40
2018,06,09,02,23,9.40
2018,06,09,02,24,9.40
2018,06,09,02,25,9.40
2018,06,09,02,26,9.40
2018,06,09,02,27,9.40
2018,06,09,02,28,9.40
2018,06,09,02,29,9.40
2018,06,09,02,30,9.40
2018,06,09,02,31,9.40
2018,06,09,02,32,9.40
2018,06,09,02,33,9.40
2018,06,09,02,34,9.40
2018,06,09,02,35,9.40
2018,06,09,02,36,9.40
2018,06,09,02,37,9.40
2018,06,09,02,38,9.40
2018,06,09,02,39,9.40
2018,06,09,02,40,9.40
2018,06,09,02,41,9.40
2018,06,09,02,42,9.40
2018,06,09,02,43,9.40
2018,06,09,02,44,9.40
2018,06,09,02,45,9.40
2018,06,09,02,46,9.40
2018,06,09,02,47,9.40
2018,06,09,02,48,9.40
2018,06,09,02,49,9.40
2018,06,09,02,50,9.40
2018,06,09,02,51,9.40
2018,06,09,02,52,9.40
2018,06,09,02,53,9.30
2018,06,09,02,54,9.30
2018,06,09,02,55,9.30
2018,06,09,02,56,9.30
2018,06,09,02,57,9.30
2018,06,09,02,58,9.30
2018,06,09,02,59,9.30
2018,06,09,03,00,9.30
2018,06,09,03,01,9.30
2018,06,09,03,02,9.30
2018,06,09,03,03,9.30
2018,06,09,03,04,9.30
2018,06,09,03,05,9.30
2018,06,09,03,06,9.30
2018,06,09,03,07,9.30
2018,06,09,03,08,9.30
2018,06,09,03,09,9.30
2018,06,09,03,10,9.30
2018,06,09,03,11,9.20
2018,06,09,03,12,9.20
2018,06,09,03,13,9.20
2018,06,09,03,14,9.20
2018,06,09,03,15,9.20
2018,06,09,03,16,9.20
2018,06,09,03,17,9.20
2018,06,09,03,18,9.20
2018,06,09,03,19,9.20
2018,06,09,03,20,9.20
2018,06,09,03,21,9.20
2018,06,09,03,22,9.20
2018,06,09,03,23,9.20
2018,06,09,03,24,9.20
2018,06,09,03,25,9.20
2018,06,09,03,26,9.20
2018,06,09,03,27,9.20
2018,06,09,03,28,9.20
2018,06,09,03,29,9.20
2018,06,09,03,30,9.20
2018,06,09,03,31,9.20
2018,06,09,03,32,9.20
2018,06,09,03,33,9.20
2018,06,09,03,34,9.20
2018,06,09,03,35,9.20
2018,06,09,03,36,9.20
2018,06,09,03,37,9.20
2018,06,09,03,38,9.20
2018,06,09,03,39,9.20
2018,06,09,03,40,9.20
2018,06,09,03,41,9.20
2018,06,09,03,42,9.20
2018,06,09,03,43,9.20
2018,06,09,03,44,9.20
2018,06,09,03,45,9.10
2018,06,09,03,46,9.10
2018,06,09,03,47,9.10
2018,06,09,03,48,9.10
2018,06,09,03,49,9.10
2018,06,09,03,50,9.10
2018,06,09,03,51,9.10
2018,06,09,03,52,9.10
2018,06,09,03,53,9.10
2018,06,09,03,54,9.00
2018,06,09,03,55,9.00
2018,06,09,03,56,9.00
2018,06,09,03,57,9.00
2018,06,09,03,58,9.00
2018,06,09,03,59,8.90
2018,06,09,04,00,8.90
2018,06,09,04,01,8.90
2018,06,09,04,02,8.90
2018,06,09,04,03,8.90
2018,06,09,04,04,8.90
2018,06,09,04,05,8.90
2018,06,09,04,06,8.80
2018,06,09,04,07,8.80
2018,06,09,04,08,8.80
2018,06,09,04,09,8.80
2018,06,09,04,10,8.80
2018,06,09,04,11,8.80
2018,06,09,04,12,8.80
2018,06,09,04,13,8.80
2018,06,09,04,14,8.80
2018,06,09,04,15,8.80
2018,06,09,04,16,8.70
2018,06,09,04,17,8.70
2018,06,09,04,18,8.70
2018,06,09,04,19,8.70
2018,06,09,04,20,8.70
2018,06,09,04,21,8.60
2018,06,09,04,22,8.60
2018,06,09,04,23,8.60
2018,06,09,04,24,8.60
2018,06,09,04,25,8.60
2018,06,09,04,26,8.50
2018,06,09,04,27,8.50
2018,06,09,04,28,8.50
2018,06,09,04,29,8.50
2018,06,09,04,30,8.40
2018,06,09,04,31,8.40
2018,06,09,04,32,8.40
2018,06,09,04,33,8.40
2018,06,09,04,34,8.40
2018,06,09,04,35,8.40
2018,06,09,04,36,8.40
2018,06,09,04,37,8.40
2018,06,09,04,38,8.40
2018,06,09,04,39,8.40
2018,06,09,04,40,8.40
2018,06,09,04,41,8.40
2018,06,09,04,42,8.40
2018,06,09,04,43,8.40
2018,06,09,04,44,8.40
2018,06,09,04,45,8.40
2018,06,09,04,46,8.40
2018,06,09,04,47,8.40
2018,06,09,04,48,8.40
2018,06,09,04,49,8.40
2018,06,09,04,50,8.40
2018,06,09,04,51,8.30
2018,06,09,04,52,8.30
2018,06,09,04,53,8.30
2018,06,09,04,54,8.30
2018,06,09,04,55,8.30
2018,06,09,04,56,8.30
2018,06,09,04,57,8.30
2018,06,09,04,58,8.20
2018,06,09,04,59,8.20
2018,06,09,05,00,8.20
2018,06,09,05,01,8.20
2018,06,09,05,02,8.20
2018,06,09,05,03,8.10
2018,06,09,05,04,8.10
2018,06,09,05,05,8.10
2018,06,09,05,06,8.10
2018,06,09,05,07,8.00
2018,06,09,05,08,8.00
2018,06,09,05,09,8.00
2018,06,09,05,10,8.00
2018,06,09,05,11,7.90
2018,06,09,05,12,7.90
2018,06,09,05,13,7.90
2018,06,09,05,14,7.90
2018,06,09,05,15,7.90
2018,06,09,05,16,7.80
2018,06,09,05,17,7.80
2018,06,09,05,18,7.80
2018,06,09,05,19,7.80
2018,06,09,05,20,7.80
2018,06,09,05,21,7.80
2018,06,09,05,22,7.80
2018,06,09,05,23,7.80
2018,06,09,05,24,7.90
2018,06,09,05,25,7.90
2018,06,09,05,26,7.90
2018,06,09,05,27,7.90
2018,06,09,05,28,7.90
2018,06,09,05,29,7.80
2018,06,09,05,30,7.80
2018,06,09,05,31,7.80
2018,06,09,05,32,7.80
2018,06,09,05,33,7.80
2018,06,09,05,34,7.80
2018,06,09,05,35,7.80
2018,06,09,05,36,7.70
2018,06,09,05,37,7.70
2018,06,09,05,38,7.70
2018,06,09,05,39,7.70
2018,06,09,05,40,7.70
2018,06,09,05,41,7.70
2018,06,09,05,42,7.70
2018,06,09,05,43,7.70
2018,06,09,05,44,7.70
2018,06,09,05,45,7.70
2018,06,09,05,46,7.70
2018,06,09,05,47,7.80
2018,06,09,05,48,7.80
2018,06,09,05,49,7.80
2018,06,09,05,50,7.90
2018,06,09,05,51,7.80
2018,06,09,05,52,7.90
2018,06,09,05,53,7.80
2018,06,09,05,54,7.80
2018,06,09,05,55,7.80
2018,06,09,05,56,7.80
2018,06,09,05,57,7.80
2018,06,09,05,58,7.80
2018,06,09,05,59,7.80
2018,06,09,06,00,7.80
2018,06,09,06,01,7.80
2018,06,09,06,02,7.80
2018,06,09,06,03,7.80
2018,06,09,06,04,7.80
2018,06,09,06,05,7.90
2018,06,09,06,06,7.90
2018,06,09,06,07,7.90
2018,06,09,06,08,7.90
2018,06,09,06,09,7.90
2018,06,09,06,10,8.00
2018,06,09,06,11,8.00
2018,06,09,06,12,8.10
2018,06,09,06,13,8.10
2018,06,09,06,14,8.10
2018,06,09,06,15,8.10
2018,06,09,06,16,8.10
2018,06,09,06,17,8.10
2018,06,09,06,18,8.00
2018,06,09,06,19,8.00
2018,06,09,06,20,8.00
2018,06,09,06,21,8.00
2018,06,09,06,22,8.10
2018,06,09,06,23,8.10
2018,06,09,06,24,8.10
2018,06,09,06,25,8.10
2018,06,09,06,26,8.10
2018,06,09,06,27,8.20
2018,06,09,06,28,8.20
2018,06,09,06,29,8.20
2018,06,09,06,30,8.20
2018,06,09,06,31,8.20
2018,06,09,06,32,8.20
2018,06,09,06,33,8.30
2018,06,09,06,34,8.30
2018,06,09,06,35,8.30
2018,06,09,06,36,8.30
2018,06,09,06,37,8.40
2018,06,09,06,38,8.40
2018,06,09,06,39,8.40
2018,06,09,06,40,8.50
2018,06,09,06,41,8.50
2018,06,09,06,42,8.60
2018,06,09,06,43,8.60
2018,06,09,06,44,8.70
2018,06,09,06,45,8.70
2018,06,09,06,46,8.80
2018,06,09,06,47,8.80
2018,06,09,06,48,8.80
2018,06,09,06,49,8.80
2018,06,09,06,50,8.90
2018,06,09,06,51,8.90
2018,06,09,06,52,8.90
2018,06,09,06,53,9.00
2018,06,09,06,54,9.00
2018,06,09,06,55,9.00
2018,06,09,06,56,9.10
2018,06,09,06,57,9.10
2018,06,09,06,58,9.10
2018,06,09,06,59,9.20
2018,06,09,07,00,9.20
2018,06,09,07,01,9.20
2018,06,09,07,02,9.20
2018,06,09,07,03,9.20
2018,06,09,07,04,9.20
2018,06,09,07,05,9.20
2018,06,09,07,06,9.20
2018,06,09,07,07,9.30
2018,06,09,07,08,9.30
2018,06,09,07,09,9.30
2018,06,09,07,10,9.30
2018,06,09,07,11,9.30
2018,06,09,07,12,9.30
2018,06,09,07,13,9.30
2018,06,09,07,14,9.30
2018,06,09,07,15,9.30
2018,06,09,07,16,9.30
2018,06,09,07,17,9.30
2018,06,09,07,18,9.30
2018,06,09,07,19,9.40
2018,06,09,07,20,9.40
2018,06,09,07,21,9.40
2018,06,09,07,22,9.40
2018,06,09,07,23,9.40
2018,06,09,07,24,9.40
2018,06,09,07,25,9.40
2018,06,09,07,26,9.40
2018,06,09,07,27,9.40
2018,06,09,07,28,9.40
2018,06,09,07,29,9.40
2018,06,09,07,30,9.40
2018,06,09,07,31,9.40
2018,06,09,07,32,9.50
2018,06,09,07,33,9.50
2018,06,09,07,34,9.50
2018,06,09,07,35,9.50
2018,06,09,07,36,9.50
2018,06,09,07,37,9.50
2018,06,09,07,38,9.50
2018,06,09,07,39,9.60
2018,06,09,07,40,9.60
2018,06,09,07,41,9.60
2018,06,09,07,42,9.60
2018,06,09,07,43,9.60
2018,06,09,07,44,9.60
2018,06,09,07,45,9.60
2018,06,09,07,46,9.60
2018,06,09,07,47,9.60
2018,06,09,07,48,9.70
2018,06,09,07,49,9.70
2018,06,09,07,50,9.70
2018,06,09,07,51,9.70
2018,06,09,07,52,9.80
2018,06,09,07,53,9.80
2018,06,09,07,54,9.80
2018,06,09,07,55,9.90
2018,06,09,07,56,10.00
2018,06,09,07,57,10.10
2018,06,09,07,58,10.30
2018,06,09,07,59,10.40
2018,06,09,08,00,10.50
2018,06,09,08,01,10.60
2018,06,09,08,02,10.60
2018,06,09,08,03,10.70
2018,06,09,08,04,10.80
2018,06,09,08,05,10.80
2018,06,09,08,06,10.90
2018,06,09,08,07,10.90
2018,06,09,08,08,11.00
2018,06,09,08,09,11.00
2018,06,09,08,10,11.10
2018,06,09,08,11,11.10
2018,06,09,08,12,11.20
2018,06,09,08,13,11.30
2018,06,09,08,14,11.30
2018,06,09,08,15,11.40
2018,06,09,08,16,11.40
2018,06,09,08,17,11.50
2018,06,09,08,18,11.60
2018,06,09,08,19,11.60
2018,06,09,08,20,11.60
2018,06,09,08,21,11.70
2018,06,09,08,22,11.80
2018,06,09,08,23,12.00
2018,06,09,08,24,12.00
2018,06,09,08,25,12.10
2018,06,09,08,26,12.20
2018,06,09,08,27,12.30
2018,06,09,08,28,12.40
2018,06,09,08,29,12.40
2018,06,09,08,30,12.50
2018,06,09,08,31,12.50
2018,06,09,08,32,12.50
2018,06,09,08,33,12.50
2018,06,09,08,34,12.50
2018,06,09,08,35,12.40
2018,06,09,08,36,12.40
2018,06,09,08,37,12.30
2018,06,09,08,38,12.20
2018,06,09,08,39,12.20
2018,06,09,08,40,12.20
2018,06,09,08,41,12.20
2018,06,09,08,42,12.20
2018,06,09,08,43,12.20
2018,06,09,08,44,12.30
2018,06,09,08,45,12.30
2018,06,09,08,46,12.40
2018,06,09,08,47,12.40
2018,06,09,08,48,12.40
2018,06,09,08,49,12.50
2018,06,09,08,50,12.50
2018,06,09,08,51,12.50
2018,06,09,08,52,12.50
2018,06,09,08,53,12.60
2018,06,09,08,54,12.60
2018,06,09,08,55,12.60
2018,06,09,08,56,12.60
2018,06,09,08,57,12.70
2018,06,09,08,58,12.70
2018,06,09,08,59,12.80
2018,06,09,09,00,12.80
2018,06,09,09,01,12.80
2018,06,09,09,02,13.00
2018,06,09,09,03,13.10
2018,06,09,09,04,13.20
2018,06,09,09,05,13.40
2018,06,09,09,06,13.50
2018,06,09,09,07,13.60
2018,06,09,09,08,13.60
2018,06,09,09,09,13.60
2018,06,09,09,10,13.60
2018,06,09,09,11,13.60
2018,06,09,09,12,13.60
2018,06,09,09,13,13.60
2018,06,09,09,14,13.60
2018,06,09,09,15,13.60
2018,06,09,09,16,13.70
2018,06,09,09,17,13.70
2018,06,09,09,18,13.70
2018,06,09,09,19,13.70
2018,06,09,09,20,13.70
2018,06,09,09,21,13.80
2018,06,09,09,22,13.80
2018,06,09,09,23,13.80
2018,06,09,09,24,13.80
2018,06,09,09,25,13.80
2018,06,09,09,26,13.70
2018,06,09,09,27,13.70
2018,06,09,09,28,13.70
2018,06,09,09,29,13.70
2018,06,09,09,30,13.70
2018,06,09,09,31,13.70
2018,06,09,09,32,13.70
2018,06,09,09,33,13.70
2018,06,09,09,34,13.60
2018,06,09,09,35,13.60
2018,06,09,09,36,13.60
2018,06,09,09,37,13.70
2018,06,09,09,38,13.60
2018,06,09,09,39,13.60
2018,06,09,09,40,13.50
2018,06,09,09,41,13.50
2018,06,09,09,42,13.50
2018,06,09,09,43,13.50
2018,06,09,09,44,13.60
2018,06,09,09,45,13.70
2018,06,09,09,46,13.70
2018,06,09,09,47,13.80
2018,06,09,09,48,13.70
2018,06,09,09,49,13.50
2018,06,09,09,50,13.40
2018,06,09,09,51,13.30
2018,06,09,09,52,13.30
2018,06,09,09,53,13.30
2018,06,09,09,54,13.40
2018,06,09,09,55,13.40
2018,06,09,09,56,13.50
2018,06,09,09,57,13.60
2018,06,09,09,58,13.70
2018,06,09,09,59,13.80
2018,06,09,10,00,13.90
2018,06,09,10,01,13.90
2018,06,09,10,02,13.90
2018,06,09,10,03,13.90
2018,06,09,10,04,13.90
2018,06,09,10,05,13.90
2018,06,09,10,06,13.90
2018,06,09,10,07,13.90
2018,06,09,10,08,13.90
2018,06,09,10,09,13.80
2018,06,09,10,10,13.80
2018,06,09,10,11,13.70
2018,06,09,10,12,13.70
2018,06,09,10,13,13.60
2018,06,09,10,14,13.60
2018,06,09,10,15,13.60
2018,06,09,10,16,13.60
2018,06,09,10,17,13.60
2018,06,09,10,18,13.60
2018,06,09,10,19,13.60
2018,06,09,10,20,13.60
2018,06,09,10,21,13.60
2018,06,09,10,22,13.60
2018,06,09,10,23,13.60
2018,06,09,10,24,13.50
2018,06,09,10,25,13.50
2018,06,09,10,26,13.40
2018,06,09,10,27,13.40
2018,06,09,10,28,13.40
2018,06,09,10,29,13.30
2018,06,09,10,30,13.30
2018,06,09,10,31,13.30
2018,06,09,10,32,13.30
2018,06,09,10,33,13.30
2018,06,09,10,34,13.30
2018,06,09,10,35,13.30
2018,06,09,10,36,13.20
2018,06,09,10,37,13.20
2018,06,09,10,38,13.20
2018,06,09,10,39,13.10
2018,06,09,10,40,13.10
2018,06,09,10,41,13.10
2018,06,09,10,42,13.10
2018,06,09,10,43,13.10
2018,06,09,10,44,13.10
2018,06,09,10,45,13.20
2018,06,09,10,46,13.20
2018,06,09,10,47,13.40
2018,06,09,10,48,13.50
2018,06,09,10,49,13.60
2018,06,09,10,50,13.70
2018,06,09,10,51,13.90
2018,06,09,10,52,14.00
2018,06,09,10,53,14.20
2018,06,09,10,54,14.30
2018,06,09,10,55,14.40
2018,06,09,10,56,14.50
2018,06,09,10,57,14.50
2018,06,09,10,58,14.60
2018,06,09,10,59,14.70
2018,06,09,11,00,14.70
2018,06,09,11,01,14.70
2018,06,09,11,02,14.80
2018,06,09,11,03,14.90
2018,06,09,11,04,14.90
2018,06,09,11,05,15.00
2018,06,09,11,06,15.00
2018,06,09,11,07,15.10
2018,06,09,11,08,15.10
2018,06,09,11,09,15.10
2018,06,09,11,10,15.10
2018,06,09,11,11,15.00
2018,06,09,11,12,14.90
2018,06,09,11,13,14.80
2018,06,09,11,14,14.90
2018,06,09,11,15,14.80
2018,06,09,11,16,14.80
2018,06,09,11,17,14.80
2018,06,09,11,18,14.90
2018,06,09,11,19,15.00
2018,06,09,11,20,15.10
2018,06,09,11,21,15.10
2018,06,09,11,22,15.20
2018,06,09,11,23,15.30
2018,06,09,11,24,15.30
2018,06,09,11,25,15.40
2018,06,09,11,26,15.40
2018,06,09,11,27,15.40
2018,06,09,11,28,15.30
2018,06,09,11,29,15.30
2018,06,09,11,30,15.30
2018,06,09,11,31,15.30
2018,06,09,11,32,15.30
2018,06,09,11,33,15.20
2018,06,09,11,34,15.20
2018,06,09,11,35,15.30
2018,06,09,11,36,15.20
2018,06,09,11,37,15.20
2018,06,09,11,38,15.10
2018,06,09,11,39,15.10
2018,06,09,11,40,15.10
2018,06,09,11,41,15.10
2018,06,09,11,42,15.00
2018,06,09,11,43,15.00
2018,06,09,11,44,15.00
2018,06,09,11,45,15.10
2018,06,09,11,46,15.10
2018,06,09,11,47,15.10
2018,06,09,11,48,15.20
2018,06,09,11,49,15.30
2018,06,09,11,50,15.40
2018,06,09,11,51,15.50
2018,06,09,11,52,15.60
2018,06,09,11,53,15.70
2018,06,09,11,54,15.70
2018,06,09,11,55,15.60
2018,06,09,11,56,15.50
2018,06,09,11,57,15.40
2018,06,09,11,58,15.40
2018,06,09,11,59,15.30
2018,06,09,12,00,15.30
2018,06,09,12,01,15.20
2018,06,09,12,02,15.20
2018,06,09,12,03,15.20
2018,06,09,12,04,15.20
2018,06,09,12,05,15.30
2018,06,09,12,06,15.30
2018,06,09,12,07,15.40
2018,06,09,12,08,15.40
2018,06,09,12,09,15.40
2018,06,09,12,10,15.30
2018,06,09,12,11,15.30
2018,06,09,12,12,15.20
2018,06,09,12,13,15.10
2018,06,09,12,14,15.00
2018,06,09,12,15,15.00
2018,06,09,12,16,15.00
2018,06,09,12,17,15.00
2018,06,09,12,18,15.00
2018,06,09,12,19,15.10
2018,06,09,12,20,15.20
2018,06,09,12,21,15.30
2018,06,09,12,22,15.40
2018,06,09,12,23,15.50
2018,06,09,12,24,15.60
2018,06,09,12,25,15.70
2018,06,09,12,26,15.70
2018,06,09,12,27,15.80
2018,06,09,12,28,15.80
2018,06,09,12,29,15.70
2018,06,09,12,30,15.80
2018,06,09,12,31,15.80
2018,06,09,12,32,15.80
2018,06,09,12,33,15.90
2018,06,09,12,34,15.90
2018,06,09,12,35,15.90
2018,06,09,12,36,15.80
2018,06,09,12,37,15.70
2018,06,09,12,38,15.60
2018,06,09,12,39,15.60
2018,06,09,12,40,15.60
2018,06,09,12,41,15.50
2018,06,09,12,42,15.40
2018,06,09,12,43,15.40
2018,06,09,12,44,15.40
2018,06,09,12,45,15.40
2018,06,09,12,46,15.40
2018,06,09,12,47,15.40
2018,06,09,12,48,15.50
2018,06,09,12,49,15.50
2018,06,09,12,50,15.60
2018,06,09,12,51,15.70
2018,06,09,12,52,15.70
2018,06,09,12,53,15.70
2018,06,09,12,54,15.60
2018,06,09,12,55,15.60
2018,06,09,12,56,15.50
2018,06,09,12,57,15.40
2018,06,09,12,58,15.30
2018,06,09,12,59,15.20
2018,06,09,13,00,15.20
2018,06,09,13,01,15.10
2018,06,09,13,02,15.10
2018,06,09,13,03,15.20
2018,06,09,13,04,15.20
2018,06,09,13,05,15.20
2018,06,09,13,06,15.20
2018,06,09,13,07,15.20
2018,06,09,13,08,15.30
2018,06,09,13,09,15.30
2018,06,09,13,10,15.30
2018,06,09,13,11,15.40
2018,06,09,13,12,15.40
2018,06,09,13,13,15.50
2018,06,09,13,14,15.60
2018,06,09,13,15,15.70
2018,06,09,13,16,15.80
2018,06,09,13,17,15.90
2018,06,09,13,18,16.00
2018,06,09,13,19,16.10
2018,06,09,13,20,16.20
2018,06,09,13,21,16.20
2018,06,09,13,22,16.30
2018,06,09,13,23,16.30
2018,06,09,13,24,16.40
2018,06,09,13,25,16.40
2018,06,09,13,26,16.40
2018,06,09,13,27,16.50
2018,06,09,13,28,16.60
2018,06,09,13,29,16.70
2018,06,09,13,30,16.70
2018,06,09,13,31,16.60
2018,06,09,13,32,16.50
2018,06,09,13,33,16.50
2018,06,09,13,34,16.30
2018,06,09,13,35,16.20
2018,06,09,13,36,16.10
2018,06,09,13,37,16.10
2018,06,09,13,38,16.20
2018,06,09,13,39,16.20
2018,06,09,13,40,16.30
2018,06,09,13,41,16.40
2018,06,09,13,42,16.50
2018,06,09,13,43,16.60
2018,06,09,13,44,16.70
2018,06,09,13,45,16.80
2018,06,09,13,46,16.90
2018,06,09,13,47,17.00
2018,06,09,13,48,17.20
2018,06,09,13,49,17.30
2018,06,09,13,50,17.30
2018,06,09,13,51,17.40
2018,06,09,13,52,17.30
2018,06,09,13,53,17.20
2018,06,09,13,54,17.10
2018,06,09,13,55,17.10
2018,06,09,13,56,17.20
2018,06,09,13,57,17.20
2018,06,09,13,58,17.30
2018,06,09,13,59,17.20
2018,06,09,14,00,17.00
2018,06,09,14,01,16.60
2018,06,09,14,02,16.30
2018,06,09,14,03,16.00
2018,06,09,14,04,15.80
2018,06,09,14,05,15.60
2018,06,09,14,06,15.50
2018,06,09,14,07,15.40
2018,06,09,14,08,15.30
2018,06,09,14,09,15.20
2018,06,09,14,10,15.20
2018,06,09,14,11,15.10
2018,06,09,14,12,15.10
2018,06,09,14,13,15.10
2018,06,09,14,14,15.10
2018,06,09,14,15,15.10
2018,06,09,14,16,15.00
2018,06,09,14,17,15.00
2018,06,09,14,18,15.00
2018,06,09,14,19,15.00
2018,06,09,14,20,15.00
2018,06,09,14,21,15.10
2018,06,09,14,22,15.00
2018,06,09,14,23,15.00
2018,06,09,14,24,14.90
2018,06,09,14,25,14.90
2018,06,09,14,26,14.90
2018,06,09,14,27,14.90
2018,06,09,14,28,15.00
2018,06,09,14,29,15.10
2018,06,09,14,30,15.20
2018,06,09,14,31,15.30
2018,06,09,14,32,15.40
2018,06,09,14,33,15.50
2018,06,09,14,34,15.60
2018,06,09,14,35,15.70
2018,06,09,14,36,15.70
2018,06,09,14,37,15.70
2018,06,09,14,38,15.70
2018,06,09,14,39,15.70
2018,06,09,14,40,15.80
2018,06,09,14,41,15.80
2018,06,09,14,42,15.90
2018,06,09,14,43,16.00
2018,06,09,14,44,16.10
2018,06,09,14,45,16.20
2018,06,09,14,46,16.30
2018,06,09,14,47,16.30
2018,06,09,14,48,16.30
2018,06,09,14,49,16.40
2018,06,09,14,50,16.50
2018,06,09,14,51,16.50
2018,06,09,14,52,16.60
2018,06,09,14,53,16.60
2018,06,09,14,54,16.60
2018,06,09,14,55,16.60
2018,06,09,14,56,16.60
2018,06,09,14,57,16.50
2018,06,09,14,58,16.40
2018,06,09,14,59,16.30
2018,06,09,15,00,16.30
2018,06,09,15,01,16.30
2018,06,09,15,02,16.20
2018,06,09,15,03,16.20
2018,06,09,15,04,16.10
2018,06,09,15,05,16.00
2018,06,09,15,06,15.90
2018,06,09,15,07,15.80
2018,06,09,15,08,15.80
2018,06,09,15,09,15.70
2018,06,09,15,10,15.70
2018,06,09,15,11,15.60
2018,06,09,15,12,15.60
2018,06,09,15,13,15.60
2018,06,09,15,14,15.70
2018,06,09,15,15,15.70
2018,06,09,15,16,15.70
2018,06,09,15,17,15.60
2018,06,09,15,18,15.60
2018,06,09,15,19,15.50
2018,06,09,15,20,15.40
2018,06,09,15,21,15.30
2018,06,09,15,22,15.30
2018,06,09,15,23,15.20
2018,06,09,15,24,15.10
2018,06,09,15,25,15.00
2018,06,09,15,26,15.00
2018,06,09,15,27,14.90
2018,06,09,15,28,14.90
2018,06,09,15,29,14.90
2018,06,09,15,30,14.80
2018,06,09,15,31,14.80
2018,06,09,15,32,14.80
2018,06,09,15,33,14.80
2018,06,09,15,34,14.80
2018,06,09,15,35,14.80
2018,06,09,15,36,14.80
2018,06,09,15,37,14.80
2018,06,09,15,38,14.80
2018,06,09,15,39,14.80
2018,06,09,15,40,14.90
2018,06,09,15,41,14.90
2018,06,09,15,42,15.00
2018,06,09,15,43,15.10
2018,06,09,15,44,15.20
2018,06,09,15,45,15.30
2018,06,09,15,46,15.40
2018,06,09,15,47,15.50
2018,06,09,15,48,15.60
2018,06,09,15,49,15.60
2018,06,09,15,50,15.60
2018,06,09,15,51,15.50
2018,06,09,15,52,15.40
2018,06,09,15,53,15.20
2018,06,09,15,54,15.20
2018,06,09,15,55,15.10
2018,06,09,15,56,15.00
2018,06,09,15,57,14.90
2018,06,09,15,58,14.80
2018,06,09,15,59,14.70
2018,06,09,16,00,14.70
2018,06,09,16,01,14.70
2018,06,09,16,02,14.70
2018,06,09,16,03,14.70
2018,06,09,16,04,14.70
2018,06,09,16,05,14.70
2018,06,09,16,06,14.70
2018,06,09,16,07,14.70
2018,06,09,16,08,14.70
2018,06,09,16,09,14.70
2018,06,09,16,10,14.70
2018,06,09,16,11,14.70
2018,06,09,16,12,14.70
2018,06,09,16,13,14.70
2018,06,09,16,14,14.60
2018,06,09,16,15,14.60
2018,06,09,16,16,14.50
2018,06,09,16,17,14.50
2018,06,09,16,18,14.50
2018,06,09,16,19,14.40
2018,06,09,16,20,14.40
2018,06,09,16,21,14.40
2018,06,09,16,22,14.40
2018,06,09,16,23,14.40
2018,06,09,16,24,14.40
2018,06,09,16,25,14.40
2018,06,09,16,26,14.50
2018,06,09,16,27,14.60
2018,06,09,16,28,14.70
2018,06,09,16,29,14.70
2018,06,09,16,30,14.80
2018,06,09,16,31,14.90
2018,06,09,16,32,15.00
2018,06,09,16,33,15.10
2018,06,09,16,34,15.20
2018,06,09,16,35,15.30
2018,06,09,16,36,15.30
2018,06,09,16,37,15.40
2018,06,09,16,38,15.60
2018,06,09,16,39,15.70
2018,06,09,16,40,15.70
2018,06,09,16,41,15.80
2018,06,09,16,42,15.90
2018,06,09,16,43,15.90
2018,06,09,16,44,16.00
2018,06,09,16,45,16.10
2018,06,09,16,46,16.30
2018,06,09,16,47,16.50
2018,06,09,16,48,16.60
2018,06,09,16,49,16.70
2018,06,09,16,50,16.70
2018,06,09,16,51,16.70
2018,06,09,16,52,16.70
2018,06,09,16,53,16.70
2018,06,09,16,54,16.70
2018,06,09,16,55,16.70
2018,06,09,16,56,16.60
2018,06,09,16,57,16.50
2018,06,09,16,58,16.30
2018,06,09,16,59,16.20
2018,06,09,17,00,16.20
2018,06,09,17,01,16.20
2018,06,09,17,02,16.10
2018,06,09,17,03,16.10
2018,06,09,17,04,16.00
2018,06,09,17,05,16.00
2018,06,09,17,06,16.00
2018,06,09,17,07,16.00
2018,06,09,17,08,16.00
2018,06,09,17,09,16.10
2018,06,09,17,10,16.10
2018,06,09,17,11,16.10
2018,06,09,17,12,16.10
2018,06,09,17,13,16.10
2018,06,09,17,14,16.10
2018,06,09,17,15,16.10
2018,06,09,17,16,16.10
2018,06,09,17,17,16.10
2018,06,09,17,18,16.00
2018,06,09,17,19,15.80
2018,06,09,17,20,15.70
2018,06,09,17,21,15.60
2018,06,09,17,22,15.40
2018,06,09,17,23,15.20
2018,06,09,17,24,15.00
2018,06,09,17,25,14.70
2018,06,09,17,26,14.50
2018,06,09,17,27,14.40
2018,06,09,17,28,14.20
2018,06,09,17,29,14.10
2018,06,09,17,30,14.00
2018,06,09,17,31,13.90
2018,06,09,17,32,13.90
2018,06,09,17,33,13.80
2018,06,09,17,34,13.80
2018,06,09,17,35,13.80
2018,06,09,17,36,13.80